Weather History for Mammoth, CA

Change the Weather History Date:

Sunday, October 27, 2013

  Actual Average Record
Temperature  
Mean Temperature 42 °F -  
Max Temperature 62 °F 51 °F 71 °F (2003)
Min Temperature 21 °F 34 °F 12 °F (2010)
Degree Days  
Heating Degree Days 24    
Moisture  
Dew Point 15 °F    
Average Humidity 36    
Maximum Humidity 63    
Minimum Humidity 15    
Precipitation  
Precipitation 0.00 in - - ()
Sea Level Pressure  
Sea Level Pressure 29.98 in    
Wind  
Wind Speed 9 mph (SW)    
Max Wind Speed 47 mph    
Max Gust Speed 67 mph    
Visibility 10 miles    
Events      
Averages and records for this station are not official NWS values.
T = Trace of Precipitation, MM = Missing Value Source: NWS Daily Summary

Daily Weather History Graph

Daily Weather History Graph

Search for Another Location

Airport:

Trip Planner

Search our weather history database for the weather conditions in past years. The results will help you decide how hot, cold, wet, or windy it might be!

Date:

Astronomy

Oct. 27, 2013 Rise Set
Actual Time 7:15 AM PDT 6:02 PM PDT
Civil Twilight 6:48 AM PDT 6:29 PM PDT
Nautical Twilight 6:18 AM PDT 6:59 PM PDT
Astronomical Twilight 5:47 AM PDT 7:30 PM PDT
Moon 12:24 AM PDT (10/27) 2:07 PM PDT (10/27)
Length of Visible Light 11h 40m
Length of Day
10h 46m
Last Quarter, 42% of the Moon is Illuminated
Oct 27
Last Quarter
Nov 3
New
Nov 9
First Quarter
Nov 17
Full
Nov 25
Last Quarter

Hourly Weather History & Observations

Time (PDT) Temp. Windchill Dew Point Humidity Pressure Visibility Wind Dir Wind Speed Gust Speed Precip Events Conditions
12:15 AM 35.6 °F 32.8 °F 12.2 °F 38% 30.30 in 10.0 mi NW 3.5 mph - N/A   Clear
12:35 AM 30.2 °F 26.7 °F 10.4 °F 44% 30.29 in 10.0 mi NW 3.5 mph - N/A   Clear
12:55 AM 32.0 °F - 12.2 °F 44% 30.29 in 10.0 mi Calm Calm - N/A   Clear
1:15 AM 30.2 °F - 10.4 °F 44% 30.28 in 10.0 mi Calm Calm - N/A   Clear
1:35 AM 28.4 °F - 10.4 °F 47% 30.28 in 10.0 mi Calm Calm - N/A   Clear
1:55 AM 26.6 °F - 8.6 °F 47% 30.28 in 10.0 mi Calm Calm - N/A   Clear
2:15 AM 28.4 °F 24.6 °F 10.4 °F 47% 30.27 in 10.0 mi WNW 3.5 mph - N/A   Clear
2:35 AM 28.4 °F - 12.2 °F 51% 30.26 in 10.0 mi Calm Calm - N/A   Clear
2:55 AM 26.6 °F 21.2 °F 10.4 °F 51% 30.25 in 10.0 mi NNW 4.6 mph - N/A   Clear
3:15 AM 26.6 °F 21.2 °F 10.4 °F 51% 30.25 in 10.0 mi North 4.6 mph - N/A   Clear
3:35 AM 26.6 °F 22.6 °F 12.2 °F 55% 30.24 in 10.0 mi North 3.5 mph - N/A   Clear
3:55 AM 24.8 °F 19.1 °F 10.4 °F 54% 30.23 in 10.0 mi North 4.6 mph - N/A   Clear
4:15 AM 26.6 °F - 12.2 °F 55% 30.23 in 10.0 mi Calm Calm - N/A   Clear
4:35 AM 26.6 °F 22.6 °F 12.2 °F 55% 30.21 in 10.0 mi NNE 3.5 mph - N/A   Clear
4:55 AM 26.6 °F - 12.2 °F 55% 30.21 in 10.0 mi Calm Calm - N/A   Clear
5:15 AM 26.6 °F - 10.4 °F 51% 30.21 in 10.0 mi Calm Calm - N/A   Clear
5:35 AM 24.8 °F 20.5 °F 10.4 °F 54% 30.21 in 10.0 mi North 3.5 mph - N/A   Clear
5:55 AM 24.8 °F - 12.2 °F 59% 30.21 in 10.0 mi Calm Calm - N/A   Clear
6:15 AM 23.0 °F 18.4 °F 10.4 °F 59% 30.20 in 10.0 mi North 3.5 mph - N/A   Clear
6:35 AM 24.8 °F - 12.2 °F 59% 30.19 in 10.0 mi Calm Calm - N/A   Clear
6:55 AM 23.0 °F 17.0 °F 10.4 °F 59% 30.19 in 10.0 mi NNW 4.6 mph - N/A   Clear
7:15 AM 21.2 °F - 10.4 °F 63% 30.19 in 10.0 mi North - - N/A   Clear
7:35 AM 24.8 °F 20.5 °F 12.2 °F 59% 30.18 in 10.0 mi NW 3.5 mph - N/A   Clear
7:55 AM 24.8 °F - 12.2 °F 59% 30.17 in 10.0 mi Calm Calm - N/A   Clear
8:15 AM 28.4 °F 23.3 °F 14.0 °F 55% 30.17 in 10.0 mi WSW 4.6 mph - N/A   Clear
8:35 AM 33.8 °F - 14.0 °F 44% 30.17 in 10.0 mi Calm Calm - N/A   Clear
8:55 AM 39.2 °F - 14.0 °F 36% 30.17 in 10.0 mi Calm Calm - N/A   Clear
9:15 AM 42.8 °F - 14.0 °F 31% 30.16 in 10.0 mi Calm Calm - N/A   Clear
9:35 AM 46.4 °F 43.5 °F 15.8 °F 29% 30.15 in 10.0 mi SSE 5.8 mph - N/A   Clear
9:55 AM 46.4 °F 44.3 °F 17.6 °F 32% 30.13 in 10.0 mi ESE 4.6 mph - N/A   Clear
10:15 AM 50.0 °F - 17.6 °F 28% 30.13 in 10.0 mi SSE 4.6 mph - N/A   Clear
10:35 AM 51.8 °F - 17.6 °F 26% 30.11 in 10.0 mi SE 5.8 mph - N/A   Clear
10:55 AM 57.2 °F - 15.8 °F 20% 30.10 in 10.0 mi SE 4.6 mph - N/A   Clear
11:15 AM 59.0 °F - 15.8 °F 19% 30.08 in 10.0 mi East 9.2 mph - N/A   Clear
11:35 AM 59.0 °F - 15.8 °F 19% 30.07 in 10.0 mi East 8.1 mph 17.3 mph N/A   Clear
11:55 AM 59.0 °F - 14.0 °F 17% 30.06 in 5.0 mi SE 8.1 mph - N/A   Haze
12:15 PM 60.8 °F - 12.2 °F 15% 30.03 in 10.0 mi SW 6.9 mph 25.3 mph N/A   Scattered Clouds
12:35 PM 62.6 °F - 14.0 °F 15% 30.02 in 10.0 mi West 13.8 mph 20.7 mph N/A   Clear
12:55 PM 60.8 °F - 15.8 °F 17% 30.00 in 10.0 mi West 12.7 mph 29.9 mph N/A   Clear
1:15 PM 60.8 °F - 15.8 °F 17% 29.99 in 10.0 mi West 18.4 mph 25.3 mph N/A   Clear
1:35 PM 60.8 °F - 17.6 °F 19% 29.97 in 10.0 mi West 16.1 mph 32.2 mph N/A   Clear
1:55 PM 60.8 °F - 17.6 °F 19% 29.95 in 10.0 mi South 15.0 mph 33.4 mph N/A   Clear
2:15 PM 60.8 °F - 15.8 °F 17% 29.93 in 10.0 mi SSW 19.6 mph 32.2 mph N/A   Clear
2:35 PM 59.0 °F - 14.0 °F 17% 29.92 in 10.0 mi WSW 16.1 mph 36.8 mph N/A   Clear
2:55 PM 59.0 °F - 15.8 °F 19% 29.91 in 10.0 mi SSW 5.8 mph 33.4 mph N/A   Clear
3:15 PM 59.0 °F - 14.0 °F 17% 29.90 in 10.0 mi West 15.0 mph 23.0 mph N/A   Clear
3:35 PM 59.0 °F - 15.8 °F 19% 29.88 in 10.0 mi West 12.7 mph 33.4 mph N/A   Clear
3:55 PM 59.0 °F - 15.8 °F 19% 29.85 in 10.0 mi South 31.1 mph 40.3 mph N/A   Clear
4:15 PM 57.2 °F - 15.8 °F 20% 29.84 in 10.0 mi SSW 31.1 mph 47.2 mph N/A   Clear
4:35 PM 55.4 °F - 15.8 °F 21% 29.82 in 10.0 mi South 32.2 mph 43.7 mph N/A   Clear
4:55 PM 53.6 °F - 17.6 °F 24% 29.81 in 10.0 mi SW 31.1 mph 50.6 mph N/A   Clear
5:15 PM 51.8 °F - 15.8 °F 24% 29.78 in 10.0 mi South 34.5 mph 55.2 mph N/A   Clear
5:35 PM 50.0 °F - 15.8 °F 26% 29.77 in 10.0 mi SSW 28.8 mph 61.0 mph N/A   Clear
5:55 PM 50.0 °F - 15.8 °F 26% 29.76 in 10.0 mi SSW 21.9 mph 59.8 mph N/A   Clear
6:15 PM 50.0 °F - 15.8 °F 26% 29.75 in 10.0 mi South 20.7 mph 51.8 mph N/A   Clear
6:35 PM 50.0 °F - 15.8 °F 26% 29.74 in 10.0 mi SSW 29.9 mph 46.0 mph N/A   Clear
6:55 PM 48.2 °F - 17.6 °F 30% 29.72 in 10.0 mi SSW 32.2 mph 52.9 mph N/A   Clear
7:15 PM 48.2 °F - 17.6 °F 30% 29.72 in 10.0 mi South 29.9 mph 55.2 mph N/A   Clear
7:35 PM 46.4 °F 37.7 °F 17.6 °F 32% 29.72 in 10.0 mi South 26.5 mph 66.7 mph N/A   Clear
7:55 PM 46.4 °F 36.7 °F 17.6 °F 32% 29.69 in 10.0 mi South 33.4 mph 51.8 mph N/A   Scattered Clouds
8:15 PM 46.4 °F 36.9 °F 15.8 °F 29% 29.67 in 10.0 mi South 32.2 mph 54.1 mph N/A   Scattered Clouds
8:35 PM 46.4 °F 37.2 °F 15.8 °F 29% 29.63 in 10.0 mi South 29.9 mph 48.3 mph N/A   Clear
8:55 PM 44.6 °F 35.1 °F 15.8 °F 31% 29.60 in 10.0 mi SSW 27.6 mph 48.3 mph N/A   Clear
9:15 PM 44.6 °F 32.6 °F 14.0 °F 29% 29.58 in 10.0 mi SSW 47.2 mph 62.1 mph N/A   Clear
9:35 PM 44.6 °F 34.1 °F 15.8 °F 31% 29.60 in 10.0 mi SW 34.5 mph 59.8 mph N/A   Clear
9:55 PM 44.6 °F 35.3 °F 17.6 °F 34% 29.63 in 10.0 mi SSW 26.5 mph 49.5 mph N/A   Clear
10:15 PM 44.6 °F 41.4 °F 17.6 °F 34% 29.62 in 10.0 mi WSW 5.8 mph 35.7 mph N/A   Scattered Clouds
10:35 PM 44.6 °F 41.4 °F 21.2 °F 39% 29.61 in 10.0 mi West 5.8 mph 24.2 mph N/A   Overcast
10:55 PM 44.6 °F 38.1 °F 23.0 °F 43% 29.61 in 10.0 mi SW 13.8 mph 26.5 mph N/A   Overcast
11:15 PM 44.6 °F 36.1 °F 23.0 °F 43% 29.59 in 10.0 mi WSW 21.9 mph 47.2 mph N/A   Overcast
11:35 PM 44.6 °F 39.7 °F 23.0 °F 43% 29.59 in 10.0 mi WNW 9.2 mph 21.9 mph N/A   Overcast
11:55 PM 44.6 °F 34.7 °F 21.2 °F 39% 29.56 in 10.0 mi SW 29.9 mph 46.0 mph N/A   Overcast